Smyrna, TN

1:20 AM CDT on September 23, 2017 (GMT -0500)
Smyrna

Weather History for KMQY - April, 2013

Change the Weather History Date:

Tuesday, April 30, 2013

  Actual Average Record
Temperature  
Mean Temperature 64 °F -  
Max Temperature 81 °F 70 °F 90 °F (2007)
Min Temperature 46 °F 53 °F 37 °F (2008)
Degree Days  
Heating Degree Days 2    
Growing Degree Days 14 (Base 50)    
Moisture  
Dew Point 51 °F    
Average Humidity 87    
Maximum Humidity 100    
Minimum Humidity 36    
Precipitation  
Precipitation 0.00 in - - ()
Sea Level Pressure  
Sea Level Pressure 30.01 in    
Wind  
Wind Speed 1 mph (SSE)    
Max Wind Speed 8 mph    
Max Gust Speed -    
Visibility 5 miles    
Events Fog , Rain    
Averages and records for this station are not official NWS values.
T = Trace of Precipitation, MM = Missing Value Source: NWS Daily Summary

Daily Weather History Graph

Daily Weather History Graph

Search for Another Location

Airport or City:

Trip Planner

Search our weather history database for the weather conditions in past years. The results will help you decide how hot, cold, wet, or windy it might be!

Date:

Astronomy

Apr. 30, 2013 Rise Set
Actual Time 5:54 AM CDT 7:32 PM CDT
Civil Twilight 5:26 AM CDT 8:00 PM CDT
Nautical Twilight 4:53 AM CDT 8:33 PM CDT
Astronomical Twilight 4:19 AM CDT 9:08 PM CDT
Moon No Moon Rise 10:24 AM CDT (4/30)
Length of Visible Light 14h 33m
Length of Day
13h 38m
Waning Gibbous, 70% of the Moon is Illuminated
Apr 30
Waning Gibbous
May 2
Last Quarter
May 9
New
May 17
First Quarter
May 24
Full

Hourly Weather History & Observations

Time (CDT) Temp. Dew Point Humidity Pressure Visibility Wind Dir Wind Speed Gust Speed Precip Events Conditions
12:56 AM 52.9 °F 52.9 °F 100% 30.00 in 8.0 mi Calm Calm - N/A   Clear
1:36 AM 51.8 °F 51.8 °F 100% 29.97 in 1.8 mi Calm Calm - N/A   Clear
1:46 AM 51.8 °F 51.8 °F 100% 29.97 in 5.0 mi Calm Calm - N/A   Clear
1:56 AM 52.0 °F 52.0 °F 100% 29.99 in 6.0 mi Calm Calm - N/A   Clear
2:17 AM 51.8 °F 51.8 °F 100% 29.97 in 1.8 mi Calm Calm - N/A   Clear
2:19 AM 51.8 °F 51.8 °F 100% 29.97 in 0.8 mi Calm Calm - N/A   Clear
2:27 AM 51.8 °F 51.8 °F 100% 29.97 in 0.5 mi Calm Calm - N/A Fog Fog
2:29 AM 51.8 °F 51.8 °F 100% 29.97 in 1.0 mi Calm Calm - N/A   Clear
2:31 AM 51.8 °F 51.8 °F 100% 29.97 in 2.5 mi Calm Calm - N/A   Clear
2:37 AM 51.8 °F 51.8 °F 100% 29.97 in 1.0 mi Calm Calm - N/A   Clear
2:48 AM 51.8 °F 51.8 °F 100% 29.97 in 0.8 mi Calm Calm - N/A   Clear
2:56 AM 48.9 °F 48.9 °F 100% 29.99 in 1.2 mi Calm Calm - N/A   Clear
3:02 AM 48.2 °F 48.2 °F 100% 29.97 in 0.8 mi Calm Calm - N/A   Clear
3:09 AM 48.2 °F 48.2 °F 100% 29.97 in 0.5 mi Calm Calm - N/A Fog Fog
3:13 AM 48.2 °F 48.2 °F 100% 29.97 in 1.2 mi Calm Calm - N/A   Clear
3:15 AM 48.2 °F 48.2 °F 100% 29.97 in 6.0 mi Calm Calm - N/A   Clear
3:56 AM 50.0 °F 50.0 °F 100% 30.00 in 10.0 mi Calm Calm - N/A   Clear
4:05 AM 48.2 °F 48.2 °F 100% 29.98 in 1.8 mi Calm Calm - N/A   Clear
4:09 AM 48.2 °F 48.2 °F 100% 29.98 in 1.0 mi Calm Calm - N/A   Clear
4:14 AM 48.2 °F 48.2 °F 100% 29.98 in 0.5 mi Calm Calm - N/A Fog Fog
4:24 AM 48.2 °F 48.2 °F 100% 29.98 in 0.2 mi Calm Calm - N/A Fog Fog
4:31 AM 48.2 °F 48.2 °F 100% 29.98 in 0.8 mi Calm Calm - N/A   Clear
4:35 AM 48.2 °F 48.2 °F 100% 29.98 in 1.2 mi Calm Calm - N/A   Clear
4:37 AM 48.2 °F 48.2 °F 100% 29.98 in 2.0 mi Calm Calm - N/A   Clear
4:46 AM 48.2 °F 48.2 °F 100% 29.98 in 8.0 mi Calm Calm - N/A   Clear
4:56 AM 50.0 °F 50.0 °F 100% 30.01 in 10.0 mi Calm Calm - N/A   Clear
5:09 AM 48.2 °F 48.2 °F 100% 29.99 in 1.8 mi Calm Calm - N/A   Clear
5:12 AM 48.2 °F 48.2 °F 100% 29.99 in 1.0 mi Calm Calm - N/A   Clear
5:22 AM 48.2 °F 48.2 °F 100% 29.99 in 0.8 mi Calm Calm - N/A   Clear
5:43 AM 48.2 °F 48.2 °F 100% 30.00 in 0.5 mi Calm Calm - N/A Fog Fog
5:56 AM 47.8 °F 47.8 °F 100% 30.03 in 0.2 mi Calm Calm - N/A Fog Fog
6:28 AM 46.4 °F 46.4 °F 100% 30.02 in 0.8 mi Calm Calm - N/A   Clear
6:30 AM 46.4 °F 46.4 °F 100% 30.02 in 1.8 mi Calm Calm - N/A   Clear
6:37 AM 48.2 °F 48.2 °F 100% 30.03 in 9.0 mi Calm Calm - N/A   Clear
6:56 AM 50.9 °F 50.9 °F 100% 30.06 in 10.0 mi Calm Calm - N/A   Clear
7:56 AM 54.9 °F 54.9 °F 100% 30.08 in 10.0 mi SSE 3.5 mph - N/A   Clear
8:56 AM 63.0 °F 56.8 °F 80% 30.07 in 10.0 mi Variable 4.6 mph - N/A   Clear
9:56 AM 70.0 °F 56.8 °F 63% 30.08 in 10.0 mi South 4.6 mph - N/A   Clear
10:56 AM 73.9 °F 54.9 °F 51% 30.07 in 10.0 mi South 4.6 mph - N/A   Clear
11:56 AM 77.0 °F 52.0 °F 42% 30.05 in 10.0 mi Variable 5.8 mph - N/A   Partly Cloudy
12:56 PM 77.9 °F 54.0 °F 43% 30.03 in 10.0 mi SE 8.1 mph - N/A   Clear
1:56 PM 79.0 °F 52.9 °F 40% 30.03 in 10.0 mi Variable 5.8 mph - N/A   Clear
2:56 PM 81.0 °F 52.0 °F 36% 30.02 in 10.0 mi SSE 6.9 mph - N/A   Clear
3:56 PM 79.9 °F 52.9 °F 39% 30.01 in 10.0 mi Variable 6.9 mph - N/A   Clear
4:56 PM 81.0 °F 52.9 °F 38% 30.00 in 10.0 mi ESE 6.9 mph - N/A   Clear
5:56 PM 79.0 °F 54.0 °F 42% 30.01 in 10.0 mi SSE 8.1 mph - N/A   Clear
6:56 PM 75.9 °F 55.9 °F 50% 30.01 in 10.0 mi Calm Calm - N/A   Clear
7:56 PM 68.9 °F 57.9 °F 68% 30.03 in 10.0 mi Calm Calm - 0.00 in   Clear
8:56 PM 63.9 °F 57.9 °F 81% 30.06 in 10.0 mi Calm Calm - 0.00 in   Clear
9:56 PM 63.0 °F 56.8 °F 80% 30.06 in 10.0 mi SSE 3.5 mph - 0.00 in Rain Light Rain
10:56 PM 59.9 °F 56.8 °F 90% 30.07 in 10.0 mi SSE 3.5 mph - 0.00 in   Clear
11:56 PM 59.0 °F 56.8 °F 93% 30.08 in 10.0 mi Calm Calm - N/A   Clear